Regional Weather Roundup
Issued by NWS State College, PA

Home | Current Version | Previous Version | Text Only | Print | Product List | Glossary On
Versions: 1 2 3 4 5 6 7 8 9 10 11 12 13 14 15 16 17 18 19 20 21 22 23 24 25 26 27 28 29 30 31 32 33 34 35 36 37 38 39 40 41 42 43 44 45 46 47 48 49 50
000
ASUS41 KCTP 210803
RWRCTP
REGIONAL WEATHER ROUNDUP
NATIONAL WEATHER SERVICE STATE COLLEGE PA
400 AM EDT THU SEP 21 2017

Note: "fair" indicates few or no clouds below 12,000 feet with no
significant weather and/or obstructions to visibility.

* = STATION THAT DOES NOT REPORT PRECIPITATION /E.G. RAIN...SNOW...ETC/
    THUNDER OR FOG.

PAZ002>004-007>009-013>016-020>023-029>032-210900-
WESTERN PENNSYLVANIA

CITY           SKY/WX    TMP DP  RH WIND       PRES   REMARKS
ERIE           CLEAR     62  59  90 CALM      30.08S
MEADVILLE      CLEAR     61  59  93 CALM      30.11R
FRANKLIN*      PTCLDY    57  57 100 CALM      30.13R
NEW CASTLE     FAIR      60  60 100 CALM      30.11S FOG
BEAVER COUNTY  NOT AVBL
BUTLER*        FOG       60  59  96 NE3       30.11R VSB 1/2
PITTSBURGH INT CLEAR     65  64  97 W6        30.10R
PITTSBURGH     CLEAR     67  63  87 NW3       30.09R
INDIANA*       CLEAR     57  57 100 CALM      30.13R
LATROBE        CLEAR     59  59 100 CALM      30.11R FOG
WASHINGTON CO*   N/A     59  55  88 CALM      30.10R VSB 3/4
$$

PAZ004>006-010>012-017>019-024>028-033>037-041-042-045-046-049>053-210900-
CENTRAL PENNSYLVANIA

CITY           SKY/WX    TMP DP  RH WIND       PRES   REMARKS
BRADFORD       FOG       54  54 100 CALM      30.14R VSB 1/2
DUBOIS         CLEAR     62  56  80 CALM      30.11R
CLEARFIELD     CLEAR     58  57  97 CALM      30.12R
JOHNSTOWN      CLEAR     61  57  87 SW5       30.13R
ALTOONA        CLEAR     57  57 100 CALM      30.10R
STATE COLLEGE  CLEAR     59  58  96 CALM      30.08R
WILLIAMSPORT   MOCLDY    63  61  93 W3        30.05R
SELINSGROVE    PTCLDY    57  57 100 CALM      30.05R FOG
FT INDIANTOWN  CLOUDY    62  62 100 CALM      30.01R
CAPITAL CITY   CLEAR     64  59  83 W3        30.02R
HARRISBURG     PTCLDY    67  64  90 NW6       30.01R
YORK           CLEAR     57  57 100 CALM      30.02R
$$

PAZ038>040-043-044-047-048-054-055-060>062-067>071-210900-
EASTERN PENNSYLVANIA

CITY           SKY/WX    TMP DP  RH WIND       PRES   REMARKS
SCRANTON       PTCLDY    61  60  97 SE3       30.04R
MOUNT POCONO   PTCLDY    63  61  93 N7        30.06R
ALLENTOWN      CLEAR     65  60  84 SW5       30.00S
QUAKERTOWN*    SUNNY     61  61 100 CALM      30.01R
READING        PTCLDY    63  63 100 CALM      30.00R
LANCASTER      PTCLDY    63  63 100 W6        30.01S
COATESVILLE    SUNNY     66  61  82 NW5       30.02R
POTTSTOWN      CLEAR     62  62 100 CALM      30.01S
BLUE BELL      CLEAR     61  61 100 CALM      30.00S
DOYLESTOWN     CLEAR     64  63  96 CALM      29.98S
WILLOW GROVE   NOT AVBL
NORTH PHILA    PTCLDY    71  63  75 NW7       29.98S
PHILADELPHIA   PTCLDY    71  63  75 NW5       29.98R
$$




USA.gov is the U.S. government's official web portal to all federal, state and local government web resources and services.